Location: A�t Bou Chrif
(32.7193°N, 5.2385°W)
Time: 00:19:35
(UTC+00:00)

ARGOS - Pass Details

Date: 08 August 2020
Orbit: 820 x 835 km, 98.5° (Epoch: 18 September)

Event Time Altitude Azimuth Distance (km) Brightness Sun altitude
Rises 20:12:14 0° 176° (S) 3,360 6.0 -12.3°
Reaches altitude 10° 20:14:37 10° 180° (S) 2,428 5.3 -12.7°
Maximum altitude 20:19:55 59° 259° (W) 953 3.7 -13.7°
Drops below altitude 10° 20:25:13 10° 339° (NNW) 2,432 6.4 -14.7°
Sets 20:27:37 0° 343° (NNW) 3,366 7.1 -15.1°
